www.pogodaiklimat.ru

Погода и климат >> Архив погоды >> Мексика >> Cuernavaca


ПОГОДА в Cuernavaca

  • Прогноз погоды в Cuernavaca
  • Монитор погоды в Cuernavaca
  • Климат города

АРХИВ ПОГОДЫ в Cuernavaca

Время (UTC), дата Ветер
(напр.,м/с)
 
Видим.   Явления Облачность Т
(С)
Тd
(С)
f
(%)
Тe
(С)
Тes
(С)
Комфортность P
(гПа)
Po
(гПа)
Тmin
(С)
Tmax
(С)
R
(мм)
R24
(мм)
S
(см)
00 14.09 штиль 0 20 км 9/9 300 м
[Frnb]
+22.5 +18.1 76 +28 +28 душно 1004.5 836.0 +15.0 +26.0
03 14.09 СЗ 1 18 км {метель} 9/9 750 м
[Frnb]
+19.9 +13.9 68 +23 +23 комфорт 1006.1 837.7
06 14.09 СЗ 1 18 км дождь 10/10 200 м
[Frnb]
+16.2 +14.5 90 +17 +17 1009.5 839.9 10
09 14.09 СЗ 1 18 км слабая морось {дождь} 10/10 180 м
[Frnb]
+16.0 +14.5 91 +17 +17 1008.4 838.0 0.6
12 14.09 СЗ 1 18 км {морось} ясно +15.0 +13.5 91 +15 +15 1008.5 837.0 +14.6 +26.0
15 14.09 С 1 20 км 3/0 660 м
[Cs]
+20.9 +15.5 71 +25 +32 комфорт 1011.3 838.9
18 14.09 Ю 1 20 км 5/5 960 м
[Sc]
+25.0 +17.2 62 +29 +40 душно 1009.7 838.5 +14.6 +25.0
03 15.09 штиль 0 18 км 5/5 480 м
[St]
+21.0 +17.1 78 +25 +25 комфорт 1005.2 838.1
06 15.09 штиль 0 18 км слабая морось 10/10 210 м
[]
+17.0 +15.4 90 +17 +17 1008.4 840.1 +28.3 4
03 16.09 штиль 0 18 км 4/4 450 м
[Frnb]
+21.0 +17.3 79 +25 +25 комфорт 1005.3 838.0
09 16.09 штиль 0 18 км {морось} 8/8 150 м
[Frnb]
+15.0 +13.8 93 +15 +15 1008.6 838.5 5
12 16.09 штиль 0 18 км ясно +14.0 +12.7 92 +14 +14 1009.8 838.0 +13.5 +28.5 5
06 17.09 СЗ 2 1200 м 10/10 180 м
[Frnb]
+18.0 +16.4 90 +19 +19 1009.2 840.4 +13.5 +28.1
09 17.09 С 1 18 км слабая морось ясно +16.0 +14.6 91 1007.7 0.7
12 17.09 СЗ 1 18 км {морось} ясно +14.0 +12.3 89 +14 +14 1010.1 838.4 +13.6 +28.1 0.7
15 17.09 С 1 20 км 8/0 480 м
[Ac lent]
+18.5 +14.6 78 +20 +23 1013.2 840.5
18 17.09 Ю 1 20 км 5/0 1410 м
[Ac lent]
+25.2 +13.7 49 +27 +41 жарко 1012.0 840.0 +13.6 +25.2
21 17.09 ЮЗ 1 20 км 6/6 1470 м
[Frnb]
+25.8 +14.0 48 +28 +34 жарко 1008.0 837.8
00 18.09 Ю 1 20 км 8/0 1000 м
[As trans]
+23.3 +13.4 54 +27 +27 душно 1005.5 837.0 +13.6 +26.0
03 18.09 штиль 0 18 км 9/9 700 м
[St]
+20.0 +14.5 71 +22 +22 комфорт 1006.6 838.4
06 18.09 штиль 0 18 км 10/10 540 м
[Frnb]
+18.5 +14.5 78 +19 +19 1009.2 840.1 +13.6 +26.0
09 18.09 штиль 0 18 км 6/6 500 м
[St]
+17.0 +12.8 76 +17 +17 1009.4 839.2
12 18.09 штиль 0 18 км 10/10 270 м
[Frnb]
+16.0 +13.9 87 +16 +16 1010.5 839.0 +15.0 +26.0
15 18.09 С 1 20 км 1/1 930 м
[Sc]
+21.9 +14.3 62 +25 +32 комфорт 1012.1 840.2
18 18.09 Ю 1 20 км 6/6 1080 м
[Sc]
+24.9 +15.9 57 +28 +37 жарко 1011.0 840.0 +15.0 +24.9
21 18.09 Ю 1 20 км 6/6 1350 м
[Sc]
+27.0 +15.9 51 +30 +36 душно 1006.4 837.3
00 19.09 ЮЗ 1 20 км ясно +25.0 +14.0 50 +27 +28 жарко 1003.8 836.5 +15.0 +27.5
03 19.09 СЗ 1 18 км ясно +20.5 +16.1 76 +25 +25 комфорт 1005.0 837.8
06 19.09 СЗ 1 18 км ясно +20.0 +15.0 73 +23 +23 комфорт 1007.0 839.0 +15.0 +27.5
09 19.09 СЗ 1 18 км слабая морось 8/8 270 м
[Frnb]
+18.4 +16.2 87 +20 +20 1007.5 838.5 0.5
12 19.09 СЗ 1 18 км ясно +16.2 +13.1 82 +17 +17 1008.5 838.0 +15.8 0.5
15 19.09 ЮЗ 1 20 км ясно +22.9 +13.4 55 +26 +34 жарко 1011.2 840.0
18 19.09 Ю 1 20 км 8/8 1260 м
[Sc]
+25.9 +15.6 53 +29 +33 душно 1009.3 839.1 +15.8 +26.5
21 19.09 Ю 1 20 км 9/9 1300 м
[Frnb]
+27.0 +16.4 52 +30 +32 душно 1005.8 837.0
00 20.09 Ю 1 20 км 9/9 1000 м
[Frnb]
+25.5 +13.6 48 +28 +28 жарко 1003.1 836.0 +15.8 +27.0
03 20.09 штиль 0 18 км 10/10 870 м
[]
+21.0 +14.0 64 +24 +24 комфорт 1004.3 837.2
06 20.09 штиль 0 18 км 10/10 630 м
[Frnb]
+20.0 +14.8 72 +22 +22 комфорт 1006.3 838.3 +15.8 +27.0
09 20.09 штиль 0 18 км {морось} 10/10 210 м
[Frnb]
+20.0 +18.2 89 +23 +23 комфорт 1006.9 838.0 0.0
12 20.09 штиль 0 18 км {морось} 6/6 210 м
[St]
+17.2 +15.6 90 +17 +17 1008.2 838.0 +15.5
15 20.09 ЮЗ 1 20 км ясно +22.0 +19 +27 1009.9 839.1
18 20.09 Ю 1 20 км 6/6 1380 м
[Sc]
+25.9 +14.6 50 +28 +37 жарко 1009.3 839.2 +15.5 +25.9
21 20.09 Ю 1 20 км 5/5 1500 м
[Sc]
+29.0 +16.5 47 +32 +40 душно 1004.8 836.5

 

Местоположение метеостанции Cuernavaca (Мексика): широта 18.88 долгота -99.23 высота над уровнем моря 1618 м.

В архиве по умолчанию представлена погода в Cuernavaca за последнюю неделю. Архивные данные за месяц целиком и за предыдущие месяцы, начиная с января 2011 года, Вы можете получить, выбрав интересующий диапазон дат из раскрывающегося списка и нажав кнопку "Ввод!".


*Определитесь, кто Вы:
робот инопланетянин человек

Внимание! Время в таблицах - всемирное. Для получения местного времени необходимо прибавить поправку, которая в Cuernavaca равна -6 ч.

Смотрите также архив погоды в соседних городах и на ближайших метеорологических станциях:

Погода в Zacatepec (Мексика) (21 км)
Погода в Institute of Geography (Мексика) (49 км)
Погода в Mexico City (Мексика) (58 км)
Погода в Toluca (Мексика) (65 км)
Погода в Tlaxcala (Мексика) (114 км)
Погода в Puebla (Мексика) (114 км)
Погода в Tlaxcala Airport (Мексика) (115 км)
Погода в Pachuca (Мексика) (148 км)
Погода в Chilpancingo (Мексика) (151 км)
Погода в Tulancingo (Мексика) (161 км)

Пояснения к столбцам:

Ветер - указаны скорость ветра в м/с - средняя за 10 мин, порывы в срок и между сроками (в фигурных скобках) и направление, откуда дует ветер: С - северный, СВ - северо-восточный, В - восточный, ЮВ - юго-восточный, Ю - южный, ЮЗ - юго-западный, З - западный, СЗ - северо-западный.
Видимость - горизонтальная дальность видимости в метрах или километрах. При видимости от 1 до 10 км при отсутствии осадков обычно наблюдается дымка, при ухудшении видимости до 1 км и менее - туман. В сухую погоду видимость может ухудшаться дымом, пылью или мглою.
Явления - указаны атмосферные явления, наблюдавшиеся в срок или в последний час перед сроком; фигурными скобками обозначены явления, наблюдавшиеся между сроками (за 1-3 часа до срока); квадратными скобками обозначены град или гололедные отложения с указанием их диаметра в мм.
Облачность - указаны через наклонную черту общая и нижняя облачность в баллах и высота нижней границы облаков в метрах; квадратными скобками обозначены формы облаков: Ci - перистые, Cs - перисто-слоистые, Cc - перисто-кучевые, Ac - высококучевые, As - высокослоистые, Sc - слоисто-кучевые, Ns - слоисто-дождевые, Cu - кучевые, Cb - кучево-дождевые. Подробнее классификацию облаков см. в Атласе облаков (PDF).
T - Температура воздуха - температура, измеренная на высоте 2 м над землей.
Td - Температура точки росы - температура, при понижении до которой содержащийся в воздухе водяной пар достигнет насыщения.
f - Относительная влажность воздуха - влажноcть воздуха, измеренная на высоте 2 м над землей.
Te - Эффективная температура - температура, которую ощущает одетый по сезону человек в тени. Характеристика душности погоды. При расчете учитывается влияние влажности воздуха и скорости ветра на теплоощущения человека.
Tes - Эффективная температура на солнце - температура, которую ощущает человек, с поправкой на солнечный нагрев. Характеристика знойности погоды. Зависит от высоты солнца над горизонтом, облачности и скорости ветра. Ночью, в пасмурную погоду, а также при ветре 12 м/с и более поправка равна нулю.
P - Атмосферное давление - приведенное к уровню моря атмосферное давление.
Po - Атмосферное давление - измеренное на уровне метеостанции атмосферное давление.
Tmin - Минимальная температура - минимум температуры воздуха на высоте 2 м над землей.
Tmax - Максимальная температура - максимум температуры воздуха на высоте 2 м над землей.
R - Количество осадков - Количество выпавших осадков за период времени, мм. При наведении курсора мыши на число - период времени, за который выпало указанное количество осадков.
R24 - Количество осадков - Количество выпавших осадков за 24 часа, мм.
S - Снежный покров - Высота снежного покрова, см. При наведении курсора мыши на число - состояние снежного покрова и степень покрытия местности в баллах.